| time (UTC) | temp F | wind direction | speed MPH | gust MPH | rain 1hr in | rain 24hr in | rain mn in | humidity % | barometer mb |
| 20260906111522 | 84 | 0.0 | 0.0 | 0.00 | 0.00 | 0.00 | 45 | 1007.4 | |
| 20260906110522 | 84 | 17 | 0.0 | 0.0 | 0.00 | 0.00 | 0.00 | 45 | 1007.3 |
| 20260906105524 | 84 | 23 | 0.0 | 0.0 | 0.00 | 0.00 | 0.00 | 46 | 1007.4 |
| 20260906104519 | 84 | 16 | 0.0 | 0.0 | 0.00 | 0.00 | 0.00 | 46 | 1007.4 |
| 20260906103526 | 84 | 354 | 0.0 | 1.0 | 0.00 | 0.00 | 0.00 | 46 | 1007.4 |
| 20260906102522 | 84 | 339 | 1.0 | 1.0 | 0.00 | 0.00 | 0.00 | 46 | 1007.4 |
| 20260906101522 | 84 | 337 | 0.0 | 1.0 | 0.00 | 0.00 | 0.00 | 46 | 1007.3 |
| 20260906100521 | 84 | 345 | 1.0 | 1.0 | 0.00 | 0.00 | 0.00 | 46 | 1007.3 |
| 20260906095522 | 84 | 339 | 0.0 | 1.0 | 0.00 | 0.00 | 0.00 | 45 | 1007.1 |
| 20260906094542 | 85 | 0.0 | 0.0 | 0.00 | 0.00 | 0.00 | 44 | 1007.1 | |
| 20260906093522 | 85 | 0.0 | 0.0 | 0.00 | 0.00 | 0.00 | 42 | 1007.2 | |
| 20260906092521 | 86 | 0.0 | 0.0 | 0.00 | 0.00 | 0.00 | 42 | 1007.1 | |
| 20260906091521 | 86 | 0.0 | 0.0 | 0.00 | 0.00 | 0.00 | 42 | 1007.2 | |
| 20260906090541 | 86 | 0.0 | 0.0 | 0.00 | 0.00 | 0.00 | 41 | 1007.2 | |
| 20260906085522 | 86 | 3 | 0.0 | 0.0 | 0.00 | 0.00 | 0.00 | 41 | 1007.2 |
| 20260906084523 | 86 | 16 | 0.0 | 0.0 | 0.00 | 0.00 | 0.00 | 40 | 1007.2 |
| 20260906083541 | 86 | 53 | 0.0 | 0.0 | 0.00 | 0.00 | 0.00 | 39 | 1007.3 |
| 20260906082522 | 86 | 338 | 0.0 | 1.0 | 0.00 | 0.00 | 0.00 | 40 | 1007.2 |
| 20260906081521 | 87 | 7 | 0.0 | 1.0 | 0.00 | 0.00 | 0.00 | 40 | 1007.3 |
| 20260906080541 | 87 | 16 | 1.0 | 1.0 | 0.00 | 0.00 | 0.00 | 41 | 1007.4 |
| 20260906075526 | 87 | 13 | 0.0 | 1.0 | 0.00 | 0.00 | 0.00 | 41 | 1007.5 |
| 20260906074604 | 87 | 352 | 1.0 | 2.0 | 0.00 | 0.00 | 0.00 | 41 | 1007.6 |
| 20260906073521 | 87 | 351 | 2.0 | 2.0 | 0.00 | 0.00 | 0.00 | 41 | 1007.6 |
| 20260906072523 | 88 | 341 | 1.0 | 1.0 | 0.00 | 0.00 | 0.00 | 41 | 1007.6 |
| 20260906071521 | 88 | 10 | 1.0 | 1.0 | 0.00 | 0.00 | 0.00 | 40 | 1007.6 |
| 20260906070521 | 88 | 336 | 2.0 | 2.0 | 0.00 | 0.00 | 0.00 | 41 | 1007.6 |
| 20260906065541 | 88 | 10 | 2.0 | 2.0 | 0.00 | 0.00 | 0.00 | 41 | 1007.6 |
| 20260906064521 | 89 | 5 | 2.0 | 2.0 | 0.00 | 0.00 | 0.00 | 41 | 1007.7 |
| 20260906063520 | 89 | 344 | 2.0 | 2.0 | 0.00 | 0.00 | 0.00 | 40 | 1007.6 |
| 20260906062520 | 89 | 337 | 1.0 | 1.0 | 0.00 | 0.00 | 0.00 | 40 | 1007.7 |
| 20260906061522 | 90 | 34 | 1.0 | 2.0 | 0.00 | 0.00 | 0.00 | 39 | 1007.6 |
| 20260906060522 | 90 | 357 | 2.0 | 2.0 | 0.00 | 0.00 | 0.00 | 39 | 1007.6 |
| 20260906055520 | 90 | 27 | 2.0 | 2.0 | 0.00 | 0.00 | 0.00 | 37 | 1007.7 |
| 20260906054521 | 90 | 5 | 2.0 | 2.0 | 0.00 | 0.00 | 0.00 | 37 | 1007.9 |
| 20260906053522 | 91 | 38 | 2.0 | 2.0 | 0.00 | 0.00 | 0.00 | 36 | 1007.9 |
| 20260906052520 | 91 | 37 | 2.0 | 2.0 | 0.00 | 0.00 | 0.00 | 36 | 1008.0 |
| 20260906051532 | 91 | 33 | 1.0 | 2.0 | 0.00 | 0.00 | 0.00 | 36 | 1008.0 |
| 20260906050521 | 91 | 14 | 1.0 | 2.0 | 0.00 | 0.00 | 0.00 | 37 | 1008.1 |
| 20260906045541 | 91 | 32 | 1.0 | 1.0 | 0.00 | 0.00 | 0.00 | 38 | 1008.1 |
| 20260906044520 | 91 | 3 | 1.0 | 1.0 | 0.00 | 0.00 | 0.00 | 38 | 1008.0 |
| 20260906043521 | 92 | 5 | 1.0 | 2.0 | 0.00 | 0.00 | 0.00 | 38 | 1008.0 |
| 20260906042520 | 92 | 330 | 1.0 | 1.0 | 0.00 | 0.00 | 0.00 | 36 | 1008.0 |
| 20260906041530 | 92 | 12 | 1.0 | 1.0 | 0.00 | 0.00 | 0.00 | 36 | 1008.0 |
| 20260906040523 | 92 | 94 | 1.0 | 1.0 | 0.00 | 0.00 | 0.00 | 36 | 1007.9 |
| 20260906035521 | 93 | 8 | 1.0 | 1.0 | 0.00 | 0.00 | 0.00 | 36 | 1007.9 |
| 20260906034520 | 93 | 26 | 1.0 | 1.0 | 0.00 | 0.00 | 0.00 | 36 | 1007.7 |
| 20260906033519 | 93 | 22 | 1.0 | 1.0 | 0.00 | 0.00 | 0.00 | 36 | 1007.6 |
| 20260906032520 | 93 | 22 | 0.0 | 0.0 | 0.00 | 0.00 | 0.00 | 37 | |
| 20260906031520 | 93 | 14 | 0.0 | 0.0 | 0.00 | 0.00 | 0.00 | 36 | |
| 20260906030521 | 93 | 22 | 1.0 | 1.0 | 0.00 | 0.00 | 0.00 | 35 | 1007.2 |
| 20260906025520 | 94 | 6 | 1.0 | 1.0 | 0.00 | 0.00 | 0.00 | 35 | 1007.0 |
| 20260906024520 | 94 | 22 | 1.0 | 1.0 | 0.00 | 0.00 | 0.00 | 35 | 1007.0 |
| 20260906023519 | 94 | 335 | 1.0 | 1.0 | 0.00 | 0.00 | 0.00 | 35 | 1006.9 |
| 20260906022523 | 95 | 4 | 1.0 | 1.0 | 0.00 | 0.00 | 0.00 | 34 | 1006.7 |
| 20260906021519 | 95 | 345 | 1.0 | 1.0 | 0.00 | 0.00 | 0.00 | 33 | 1006.7 |
| 20260906020521 | 95 | 351 | 1.0 | 1.0 | 0.00 | 0.00 | 0.00 | 33 | 1006.7 |
| 20260906015519 | 96 | 4 | 1.0 | 1.0 | 0.00 | 0.00 | 0.00 | 33 | 1006.7 |
| 20260906014519 | 96 | 314 | 2.0 | 2.0 | 0.00 | 0.00 | 0.00 | 32 | 1006.7 |
| 20260906013540 | 96 | 331 | 1.0 | 1.0 | 0.00 | 0.00 | 0.00 | 32 | 1006.7 |
| 20260906012519 | 97 | 320 | 2.0 | 2.0 | 0.00 | 0.00 | 0.00 | 32 | 1006.7 |
| 20260906011522 | 97 | 330 | 2.0 | 2.0 | 0.00 | 0.00 | 0.00 | 32 | 1006.7 |
| 20260906010519 | 98 | 340 | 2.0 | 2.0 | 0.00 | 0.00 | 0.00 | 32 | 1006.7 |
| 20260906005528 | 98 | 317 | 2.0 | 2.0 | 0.00 | 0.00 | 0.00 | 32 | 1006.8 |
| 20260906004525 | 98 | 283 | 2.0 | 2.0 | 0.00 | 0.00 | 0.00 | 31 | 1006.8 |
| 20260906003523 | 98 | 288 | 2.0 | 2.0 | 0.00 | 0.00 | 0.00 | 31 | 1006.7 |
| 20260906002543 | 99 | 286 | 2.0 | 2.0 | 0.00 | 0.00 | 0.00 | 32 | 1006.7 |
| 20260906001537 | 99 | 309 | 2.0 | 2.0 | 0.00 | 0.00 | 0.00 | 31 | 1006.6 |
| 20260906000555 | 99 | 326 | 3.0 | 3.0 | 0.00 | 0.00 | 0.00 | 31 | 1006.6 |
| 20260905235528 | 99 | 333 | 2.0 | 3.0 | 0.00 | 0.00 | 0.00 | 31 | |
| 20260905234520 | 100 | 294 | 2.0 | 2.0 | 0.00 | 0.00 | 0.00 | 31 | 1006.5 |
| 20260905233526 | 100 | 326 | 2.0 | 2.0 | 0.00 | 0.00 | 0.00 | 31 | 1006.6 |
| 20260905232532 | 100 | 275 | 2.0 | 2.0 | 0.00 | 0.00 | 0.00 | 31 | 1006.6 |
| 20260905231531 | 100 | 283 | 2.0 | 2.0 | 0.00 | 0.00 | 0.00 | 31 | 1006.7 |
| 20260905230549 | 101 | 267 | 2.0 | 2.0 | 0.00 | 0.00 | 0.00 | 31 | 1006.8 |
| 20260905225522 | 101 | 300 | 2.0 | 2.0 | 0.00 | 0.00 | 0.00 | 30 | 1006.8 |
| 20260905224524 | 101 | 256 | 2.0 | 2.0 | 0.00 | 0.00 | 0.00 | 30 | 1006.9 |
| 20260905223530 | 101 | 272 | 2.0 | 3.0 | 0.00 | 0.00 | 0.00 | 30 | 1007.0 |
| 20260905222528 | 101 | 310 | 2.0 | 2.0 | 0.00 | 0.00 | 0.00 | 30 | 1007.1 |
| 20260905221542 | 101 | 241 | 1.0 | 2.0 | 0.00 | 0.00 | 0.00 | 29 | 1007.1 |
| 20260905220539 | 101 | 298 | 1.0 | 1.0 | 0.00 | 0.00 | 0.00 | 30 | 1007.2 |
| 20260905215520 | 101 | 269 | 2.0 | 2.0 | 0.00 | 0.00 | 0.00 | 30 | 1007.5 |
| 20260905214547 | 101 | 307 | 2.0 | 2.0 | 0.00 | 0.00 | 0.00 | 30 | 1007.5 |
| 20260905213525 | 101 | 289 | 2.0 | 2.0 | 0.00 | 0.00 | 0.00 | 31 | 1007.7 |
| 20260905212529 | 101 | 278 | 2.0 | 2.0 | 0.00 | 0.00 | 0.00 | 30 | 1007.7 |
| 20260905211526 | 101 | 233 | 2.0 | 2.0 | 0.00 | 0.00 | 0.00 | 31 | 1007.9 |
| 20260905210524 | 101 | 307 | 2.0 | 2.0 | 0.00 | 0.00 | 0.00 | 31 | 1008.1 |
| 20260905205523 | 101 | 260 | 2.0 | 2.0 | 0.00 | 0.00 | 0.00 | 31 | 1008.1 |
| 20260905204521 | 101 | 266 | 2.0 | 2.0 | 0.00 | 0.00 | 0.00 | 32 | 1008.3 |
| 20260905203558 | 101 | 284 | 2.0 | 2.0 | 0.00 | 0.00 | 0.00 | 32 | 1008.5 |
| 20260905202542 | 101 | 303 | 2.0 | 2.0 | 0.00 | 0.00 | 0.00 | 32 | 1008.7 |
| 20260905201527 | 101 | 313 | 2.0 | 2.0 | 0.00 | 0.00 | 0.00 | 32 | 1008.7 |
| 20260905200520 | 101 | 270 | 2.0 | 2.0 | 0.00 | 0.00 | 0.00 | 32 | 1008.8 |
| 20260905195526 | 101 | 258 | 2.0 | 2.0 | 0.00 | 0.00 | 0.00 | 32 | 1009.0 |
| 20260905194520 | 100 | 277 | 2.0 | 2.0 | 0.00 | 0.00 | 0.00 | 32 | 1009.1 |
| 20260905193540 | 101 | 286 | 2.0 | 2.0 | 0.00 | 0.00 | 0.00 | 33 | 1009.3 |
| 20260905192525 | 100 | 273 | 2.0 | 2.0 | 0.00 | 0.00 | 0.00 | 33 | 1009.5 |
| 20260905191540 | 100 | 304 | 2.0 | 2.0 | 0.00 | 0.00 | 0.00 | 34 | 1009.5 |
| 20260905190523 | 100 | 277 | 1.0 | 2.0 | 0.00 | 0.00 | 0.00 | 34 | 1009.7 |
| 20260905185530 | 99 | 339 | 2.0 | 2.0 | 0.00 | 0.00 | 0.00 | 35 | 1009.9 |
| 20260905184535 | 99 | 346 | 2.0 | 2.0 | 0.00 | 0.00 | 0.00 | 35 | 1010.0 |
| 20260905183520 | 99 | 326 | 2.0 | 2.0 | 0.00 | 0.00 | 0.00 | 36 | 1010.1 |
| 20260905182536 | 99 | 278 | 2.0 | 2.0 | 0.00 | 0.00 | 0.00 | 36 | 1010.1 |
| 20260905181521 | 98 | 317 | 1.0 | 2.0 | 0.00 | 0.00 | 0.00 | 36 | 1010.2 |
| 20260905180527 | 98 | 6 | 1.0 | 2.0 | 0.00 | 0.00 | 0.00 | 36 | 1010.3 |
| 20260905175530 | 97 | 300 | 1.0 | 1.0 | 0.00 | 0.00 | 0.00 | 38 | 1010.3 |
| 20260905174527 | 96 | 301 | 1.0 | 1.0 | 0.00 | 0.00 | 0.00 | 39 | 1010.4 |
| 20260905173546 | 96 | 237 | 1.0 | 1.0 | 0.00 | 0.00 | 0.00 | 39 | 1010.5 |
| 20260905172544 | 95 | 356 | 1.0 | 1.0 | 0.00 | 0.00 | 0.00 | 41 | 1010.5 |
| 20260905171524 | 95 | 228 | 0.0 | 1.0 | 0.00 | 0.00 | 0.00 | 42 | 1010.6 |
| 20260905170519 | 94 | 229 | 1.0 | 1.0 | 0.00 | 0.00 | 0.00 | 42 | 1010.7 |
| 20260905165536 | 93 | 236 | 2.0 | 2.0 | 0.00 | 0.00 | 0.00 | 43 | 1010.8 |
| 20260905164544 | 93 | 264 | 0.0 | 1.0 | 0.00 | 0.00 | 0.00 | 44 | 1010.7 |
| 20260905163545 | 92 | 253 | 0.0 | 1.0 | 0.00 | 0.00 | 0.00 | 45 | 1010.7 |
| 20260905162520 | 92 | 232 | 0.0 | 1.0 | 0.00 | 0.00 | 0.00 | 46 | 1010.7 |
| 20260905161547 | 91 | 165 | 0.0 | 1.0 | 0.00 | 0.00 | 0.00 | 47 | 1010.7 |
| 20260905160553 | 90 | 231 | 0.0 | 1.0 | 0.00 | 0.00 | 0.00 | 47 | 1010.7 |
| 20260905155526 | 90 | 130 | 0.0 | 1.0 | 0.00 | 0.00 | 0.00 | 49 | 1010.6 |
| 20260905154601 | 89 | 147 | 0.0 | 1.0 | 0.00 | 0.00 | 0.00 | 49 | 1010.6 |
| 20260905153544 | 88 | 225 | 0.0 | 1.0 | 0.00 | 0.00 | 0.00 | 50 | 1010.7 |
| 20260905152524 | 87 | 26 | 1.0 | 1.0 | 0.00 | 0.00 | 0.00 | 51 | 1010.7 |
| 20260905151551 | 87 | 155 | 1.0 | 1.0 | 0.00 | 0.00 | 0.00 | 52 | |
| 20260905150523 | 86 | 192 | 0.0 | 1.0 | 0.00 | 0.00 | 0.00 | 53 | 1010.6 |
| 20260905145538 | 85 | 153 | 1.0 | 1.0 | 0.00 | 0.00 | 0.00 | 54 | 1010.6 |
| 20260905144535 | 85 | 146 | 1.0 | 1.0 | 0.00 | 0.00 | 0.00 | 54 | |
| 20260905143543 | 84 | 205 | 0.0 | 0.0 | 0.00 | 0.00 | 0.00 | 54 | 1010.6 |
| 20260905142527 | 84 | 180 | 0.0 | 0.0 | 0.00 | 0.00 | 0.00 | 55 | 1010.5 |
| 20260905141520 | 83 | 0.0 | 0.0 | 0.00 | 0.00 | 0.00 | 55 | 1010.4 | |
| 20260905140527 | 82 | 0.0 | 0.0 | 0.00 | 0.00 | 0.00 | 56 | 1010.3 | |
| 20260905135525 | 81 | 0.0 | 0.0 | 0.00 | 0.00 | 0.00 | 56 | 1010.2 | |
| 20260905134522 | 81 | 0.0 | 0.0 | 0.00 | 0.00 | 0.00 | 56 | 1010.0 | |
| 20260905133520 | 80 | 0.0 | 0.0 | 0.00 | 0.00 | 0.00 | 56 | 1009.9 | |
| 20260905132531 | 80 | 0.0 | 0.0 | 0.00 | 0.00 | 0.00 | 56 | 1009.8 | |
| 20260905131531 | 80 | 0.0 | 0.0 | 0.00 | 0.00 | 0.00 | 56 | 1009.6 | |
| 20260905130704 | 81 | 0.0 | 0.0 | 0.00 | 0.00 | 0.00 | 56 | 1009.6 | |
| 20260905125522 | 81 | 0.0 | 0.0 | 0.00 | 0.00 | 0.00 | 55 | 1009.5 | |
| 20260905124542 | 81 | 0.0 | 0.0 | 0.00 | 0.00 | 0.00 | 55 | 1009.5 | |
| 20260905123527 | 81 | 0.0 | 0.0 | 0.00 | 0.00 | 0.00 | 55 | 1009.4 | |
| 20260905122528 | 81 | 0.0 | 0.0 | 0.00 | 0.00 | 0.00 | 55 | 1009.3 | |
| 20260905121539 | 81 | 0.0 | 0.0 | 0.00 | 0.00 | 0.00 | 55 | 1009.2 | |
| 20260905120545 | 81 | 0.0 | 0.0 | 0.00 | 0.00 | 0.00 | 55 | 1009.2 | |
| 20260905115555 | 82 | 0.0 | 0.0 | 0.00 | 0.00 | 0.00 | 54 | 1009.1 | |
| 20260905114524 | 82 | 0.0 | 0.0 | 0.00 | 0.00 | 0.00 | 54 | 1009.2 | |
| 20260905113525 | 82 | 0.0 | 0.0 | 0.00 | 0.00 | 0.00 | 54 | 1009.1 | |
| 20260905112539 | 82 | 0.0 | 0.0 | 0.00 | 0.00 | 0.00 | 54 | 1009.1 |